Location: Gibsondale
(40.9931°N, 80.2478°W)
Time: 17:29:14
(UTC+00:00)

Meteor 2-14 Rocket - Pass Details

Date: 29 October 2020
Orbit: 937 x 957 km, 82.5° (Epoch: 28 November)

Event Time Altitude Azimuth Distance (km) Brightness Sun altitude
Rises 22:32:52 0° 353° (N) 3,638 7.4 -3.2°
Reaches altitude 10° 22:35:23 10° 355° (N) 2,686 6.7 -3.6°
Maximum altitude 22:41:32 77° 81° (E) 976 4.5 -4.8°
Drops below altitude 10° 22:47:37 10° 168° (SSE) 2,655 6.8 -5.9°
Sets 22:50:05 0° 170° (S) 3,593 7.5 -6.3°
